Location: ????????
(55.4000°N, 39.1167°E)
Time: 14:27:45
(UTC+00:00)

Cosmos 44 Rocket - Pass Details

Date: 19 May 2025
Orbit: 651 x 728 km, 65.1° (Epoch: 21 June)

Event Time Altitude Azimuth Distance (km) Brightness Sun altitude
Rises 22:58:10 0° 311° (NW) 3,019 6.8 -11.8°
Reaches altitude 10° 23:00:32 10° 305° (NW) 2,113 5.9 -11.6°
Maximum altitude 23:05:05 44° 235° (SW) 949 3.6 -11.4°
Drops below altitude 10° 23:09:42 10° 164° (SSE) 2,148 5.4 -11.1°
Enters shadow 23:11:03 - 160° (SSE) 2,655 5.9 -11.0°
